星链-3801 (STARLINK-3801 )

导读

STARLINK-3801是美国太空探索技术公司(SpaceX)星链(Starlink)星座中的一员,于2022年4月29日8点发射升空。星链计划旨在搭建全球卫星互联网通信网络,为全球提供低延迟、高速率的互联网服务,该卫星入轨后推动了星链星座组网进程,助力星座覆盖能力与服务能力提升。

Basic Information
目录编号:
52356
目录名称:
STARLINK-3801
国际标识:
2022-045AB
轨道中心:
EARTH
卫星名称:
星链-3801
卫星全名:
星链-3801 (STARLINK-3801 )
卫星状态:
在轨 (已飞行1510 天)
发射日期:
2022-04-29 UTC
国别 :
美国 (US)
星等 :
--
Orbit Information
数据来源 国际轨道数据 AOE轨道数据
星历时间 2026-06-17T10:30:08+0800
14小时前
查看轨道信息
2026-06-14T04:00:00+0800
3天前
查看轨道信息
半长轴 6917.914km 6917.899km
偏心率 0.0001365 0.0001135
轨道倾角 53.161° 53.159°
近地点辐角 92.959° 51.487°
升交点赤经 112.765° 127.470°
平近点角 267.156° 172.005°
近地点 538.832km 538.976km
远地点 540.722km 540.548km
周期 95.438分钟 95.438分钟
每日圈数 15.088291 15.088342
Detailed Information
固有亮度:
5
最大亮度:
2.5
卫星平台:
Starlink v1.5
覆盖范围:
全球
运营商:
太空探索技术公司
运营商所在国:
美国
制造商(研发单位):
太空探索技术公司
制造商所在国:
美国
使用方式:
暂无
Satellite Introduction
星链(Starlink)计划是由太空探索技术公司(SpaceX)提出的一个巨型低轨卫星互联网星座项目,计划在2019年至2024年间在太空搭建由约1.2万颗卫星组成的“星链”网络,其中1584颗将部署在地球上空550千米处的近地轨道,并从2020年开始工作。该卫星仍在工作。
2D Orbit Map
3D Orbit Map
Orbit Altitude Analysis Chart
Orbit Inclination Analysis Chart
Orbit Comprehensive Analysis Chart
View Comprehensive Chart